Home   Weather   Ehingen (Donau)   Past weeks

Flag for Germany Past Weather in Ehingen (Donau), Baden-Württemberg, Germany — Yesterday and Last 2 Weeks

Now
68 °F

Mild.


Feels Like: 68 °F
Forecast: 51 / 69 °F
Wind: 3 mph from Southwest

Location: Laupheim Airport

Current Time: Sep 29, 2016 at 2:02:09 PM

Latest Report: Sep 29, 2016 at 12:20 PM


Visibility: N/A

Pressure: 30.24 "Hg (28.50 "Hg at 508m altitude)

Humidity: 64%

Dew Point: 55 °F

Location of Ehingen (Donau)Location

Past Weather in Ehingen (Donau) — Graph

°F

Ehingen (Donau) Temperature Yesterday

Maximum temperature yesterday: 68 °F (at 3:20 PM)
Minimum temperature yesterday: 46 °F (at 5:20 AM)
Average temperature yesterday: 56 °F

High & Low Weather Summary for the Past Weeks

 TemperatureHumidityPressure
High81 °F (Sep 14, 4:20 PM)100% (Sep 15, 7:20 AM)30.45 "Hg (Sep 15, 7:20 AM)
Low39 °F (Sep 22, 5:20 AM)42% (Sep 14, 5:20 PM)29.86 "Hg (Sep 15, 4:20 AM)
Average57 °F82%30.13 "Hg
* Reported Sep 14 12:20 PM — Sep 29 12:20 PM, Ehingen (Donau), Weather by CustomWeather, © 2016

Note: Actual official high and low records may vary slightly from our data, if they occured in-between our weather recording intervals... More about our weather records

Advertising

Ehingen (Donau) Weather History for the Previous 24 Hours

Scroll right to see more
 ConditionsComfort  
Time TempWeatherWind HumidityBarometerVisibility
12:20 PM
Thu, Sep 29
68 °FMild.3 mph64%30.24 "HgN/A
11:20 AM64 °FPassing clouds.10 mph68%30.27 "HgN/A
10:20 AM61 °FPassing clouds.8 mph77%30.30 "HgN/A
9:20 AM54 °FPassing clouds.5 mph94%30.30 "Hg6 mi
8:20 AM50 °FFog.1 mph100%30.30 "Hg3 mi
7:20 AM50 °FFog.3 mph100%30.30 "Hg2 mi
6:56 AM50 °FFog.3 mph100%30.30 "Hg2 mi
6:20 AM52 °FFog.5 mph94%30.30 "Hg2 mi
5:20 AM52 °FPassing clouds.3 mph94%30.33 "Hg4 mi
4:20 AM54 °FPassing clouds.6 mph94%30.33 "Hg4 mi
3:20 AM54 °FFog.6 mph94%30.36 "Hg3 mi
2:20 AM54 °FFog.6 mph94%30.36 "Hg3 mi
1:20 AM55 °FPassing clouds.6 mph88%30.39 "HgN/A
12:20 AM55 °FPassing clouds.6 mph88%30.39 "HgN/A
11:20 PM
Wed, Sep 28
57 °FPassing clouds.3 mph82%30.39 "HgN/A
10:20 PM57 °FPassing clouds.6 mph82%30.39 "HgN/A
9:20 PM59 °FPassing clouds.5 mph77%30.39 "HgN/A
8:20 PM61 °FPassing clouds.5 mph77%30.39 "HgN/A
7:20 PM63 °FPassing clouds.7 mph73%30.39 "HgN/A
6:20 PM66 °FPartly sunny.8 mph60%30.36 "HgN/A
5:20 PM68 °FPartly sunny.12 mph56%30.36 "HgN/A
4:20 PM68 °FPartly sunny.10 mph56%30.36 "HgN/A
3:20 PM68 °FPartly sunny.12 mph56%30.39 "HgN/A
2:20 PM66 °FPartly sunny.8 mph68%30.39 "HgN/A
Weather by CustomWeather, © 2016

See weather overviewHow to use our weather pages